This is the latest recevied weather packets stored in our database for station/object KD4EG. If no packets are shown the sender has not sent any weather packets the latest 10 day(s).
| Time | Temp. | Humidity | Pressure | Rain* | Wind** | Luminosity | Snow |
|---|---|---|---|---|---|---|---|
| 1778025890 | 22.78° C | 40% | 1014.1 hPa | 0 mm | - | 6 W/m² | - |
| 1778025587 | 23.33° C | 40% | 1014 hPa | 0 mm | - | 7 W/m² | - |
| 1778025285 | 23.33° C | 41% | 1014.1 hPa | 0 mm | - | 12 W/m² | - |
| 1778024981 | 23.33° C | 40% | 1014 hPa | 0 mm | - | 18 W/m² | - |
| 1778024679 | 23.33° C | 40% | 1013.9 hPa | 0 mm | - | 25 W/m² | - |
| 1778024375 | 23.33° C | 40% | 1014 hPa | 0 mm | - | 28 W/m² | - |
| 1778024073 | 23.33° C | 39% | 1013.9 hPa | 0 mm | - | 26 W/m² | - |
| 1778023771 | 23.89° C | 38% | 1014 hPa | 0 mm | - | 29 W/m² | - |
| 1778023469 | 23.89° C | 37% | 1013.7 hPa | 0 mm | - | 33 W/m² | - |
| 1778023165 | 23.89° C | 37% | 1013.8 hPa | 0 mm | - | 37 W/m² | - |
| 1778022863 | 23.89° C | 36% | 1013.7 hPa | 0 mm | - | 44 W/m² | - |
| 1778022560 | 23.89° C | 36% | 1013.9 hPa | 0 mm | - | 54 W/m² | - |
| 1778022258 | 23.89° C | 35% | 1013.7 hPa | 0 mm | - | 52 W/m² | - |
| 1778021954 | 23.89° C | 34% | 1013.7 hPa | 0 mm | - | 54 W/m² | - |
| 1778021652 | 23.89° C | 35% | 1014.1 hPa | 0 mm | - | 48 W/m² | - |
| 1778021347 | 24.44° C | 35% | 1013.8 hPa | 0 mm | - | 46 W/m² | - |
| 1778021044 | 24.44° C | 35% | 1013.8 hPa | 0 mm | - | 42 W/m² | - |
| 1778020741 | 25° C | 35% | 1013.9 hPa | 0 mm | - | 43 W/m² | - |
| 1778020438 | 25.56° C | 34% | 1013.6 hPa | 0 mm | - | 63 W/m² | - |
| 1778020134 | 25.56° C | 33% | 1013.8 hPa | 0 mm | - | 125 W/m² | - |
| 1778019830 | 25.56° C | 34% | 1013.7 hPa | 0 mm | - | 175 W/m² | - |
| 1778019527 | 25.56° C | 36% | 1013.6 hPa | 0 mm | - | 242 W/m² | - |
| 1778019224 | 25° C | 35% | 1013.9 hPa | 0 mm | - | 206 W/m² | - |
| 1778018921 | 25° C | 35% | 1013.8 hPa | 0 mm | - | 77 W/m² | - |
| 1778018618 | 25° C | 34% | 1013.9 hPa | 0 mm | - | 58 W/m² | - |
* Rain latest hour (hover to see other rain measurements)
** Current wind speed in m/s (hover to see current wind gust speed)